User: anonymous   Login
Location: Huesca
(42.1318°N, 0.4078°W)
Time: 10:46:18
(UTC+02:00)
Language:

Vanguard 3 - Orbit

View from above orbital plane
View from above orbital plane
View from above satellite
View from above satellite

Ground track
Ground track

The orbit data is extracted from the following two-line orbital elements,

1 00020U 59007A   24196.61735308  .00003306  00000-0  13200-2 0  9998
2 00020  33.3540 271.8057 1650800 253.9476  87.3744 11.59104425402953
Epoch (UTC): 14 July 2024 14:48:59
Eccentricity: 0.1650800
inclination: 33.3540°
perigee height: 508 km
apogee height: 3231 km
right ascension of ascending node: 271.8057°
argument of perigee: 253.9476°
revolutions per day: 11.59104425
mean anomaly at epoch: 87.3744°
orbit number at epoch: 40295

The dashed part of the orbit path shows where the satellite is in the earth's shadow,  

DLR